Simultaneous Nadir Overpasses (SNOs) Predictions

Prediction of SNOs between AQUA and NOAA-19 Satellite Orbit:

Table of predicted SNOs for the next 14.0 days since TLE Epoch: 6/8/2012
Index Date (AQUA) Time (AQUA) AQUA Lat,Lon Date (NOAA-19) Time (NOAA-19) NOAA-19 Lat,Lon Distance(km) Time Diff (sec)
1 06/09/2012 00:26:02 46.09, 25.96 06/09/2012 00:25:42 46.09, 25.97 0.82 20
2 06/09/2012 01:11:55 -58.81,-160.37 06/09/2012 01:13:09 -58.78,-160.33 4.29 74
3 06/11/2012 05:09:26 49.19, -43.90 06/11/2012 05:09:30 49.19, -43.90 0.11 4
4 06/13/2012 09:05:12 -46.00, 76.14 06/13/2012 09:04:14 -45.98, 76.31 13.61 58
5 06/13/2012 09:52:43 52.66,-113.45 06/13/2012 09:53:11 52.67,-113.43 1.50 28
6 06/15/2012 13:49:27 -46.02, 5.08 06/15/2012 13:48:55 -46.03, 5.16 6.46 32
7 06/15/2012 14:36:14 55.27, 176.77 06/15/2012 14:37:07 55.28, 176.79 1.40 53
8 06/17/2012 18:33:37 -46.31, -65.88 06/17/2012 18:33:32 -46.31, -65.90 1.52 5
9 06/17/2012 19:17:03 67.17, 114.53 06/17/2012 19:18:16 67.09, 115.11 26.62 73
10 06/19/2012 23:16:47 -50.13,-135.42 06/19/2012 23:17:07 -50.13,-135.43 0.53 20
11 06/22/2012 03:12:41 46.02, -15.74 06/22/2012 03:11:51 45.99, -15.57 13.44 50




NCC Satellite Simultaneous Nadir Overpasses (SNOs) Prediction Service
